contact:dominique.lefevre@mio.osupytheas.fr, maurice.libes@osupytheas.fr, didier.mallarino@osupytheas.fr
Project:EMSO http://www.emso-fr.org/EMSO-France
Depth: 2436.0 m
Title:EMSO Ligure Ouest : Data MII capteur CSTAR
DateTime,Latitude,Longitude,Instrument_Serial,Reference_Counts,Signal_Counts,Corrected_Signal_raw_counts,Calculated_Beam_c_inverse_meters,Internal_thermistor_counts
DateTime,Latitude,Longitude,Instrument_Serial,Reference_Counts,Signal_Counts,Corrected_Signal_raw_counts,Calculated_Beam_c_inverse_meters,Internal_thermistor_counts
2019-12-12T00:00:03,42.805,6.029,CST-1368DR,7179,10063,15291,0.084,551
2019-12-12T00:03:05,42.805,6.029,CST-1368DR,7179,10063,15292,0.084,551
2019-12-12T00:06:07,42.805,6.029,CST-1368DR,7179,10061,15289,0.085,551
2019-12-12T00:09:08,42.805,6.029,CST-1368DR,7179,10063,15292,0.084,551
2019-12-12T00:12:10,42.805,6.029,CST-1368DR,7179,10063,15291,0.084,551
2019-12-12T00:15:12,42.805,6.029,CST-1368DR,7179,10061,15288,0.085,551
2019-12-12T00:18:13,42.805,6.029,CST-1368DR,7179,10063,15291,0.084,551
2019-12-12T00:21:15,42.805,6.029,CST-1368DR,7179,10058,15284,0.086,551
2019-12-12T00:24:16,42.805,6.029,CST-1368DR,7179,10063,15292,0.084,551
2019-12-12T00:27:18,42.805,6.029,CST-1368DR,7179,10063,15291,0.084,551
2019-12-12T00:30:20,42.805,6.029,CST-1368DR,7179,10063,15291,0.084,551
2019-12-12T00:33:21,42.805,6.029,CST-1368DR,7179,10062,15290,0.084,551
2019-12-12T00:36:23,42.805,6.029,CST-1368DR,7179,10062,15290,0.084,551
2019-12-12T00:39:25,42.805,6.029,CST-1368DR,7179,10062,15290,0.084,551
2019-12-12T00:42:26,42.805,6.029,CST-1368DR,7179,10063,15291,0.084,551
2019-12-12T00:45:28,42.805,6.029,CST-1368DR,7179,10062,15290,0.084,551
2019-12-12T00:48:30,42.805,6.029,CST-1368DR,7179,10062,15290,0.084,551
2019-12-12T00:51:31,42.805,6.029,CST-1368DR,7179,10063,15292,0.084,551
2019-12-12T00:54:33,42.805,6.029,CST-1368DR,7179,10062,15290,0.084,551
2019-12-12T00:57:35,42.805,6.029,CST-1368DR,7179,10062,15290,0.084,551
2019-12-12T01:00:36,42.805,6.029,CST-1368DR,7179,10057,15282,0.086,551
2019-12-12T01:03:38,42.805,6.029,CST-1368DR,7179,10062,15289,0.085,551
2019-12-12T01:06:39,42.805,6.029,CST-1368DR,7179,10061,15288,0.085,551
2019-12-12T01:09:41,42.805,6.029,CST-1368DR,7179,10062,15290,0.084,551
2019-12-12T01:12:43,42.805,6.029,CST-1368DR,7179,10062,15289,0.085,551
2019-12-12T01:15:44,42.805,6.029,CST-1368DR,7179,10062,15290,0.084,551
2019-12-12T01:18:46,42.805,6.029,CST-1368DR,7179,10062,15289,0.085,551
2019-12-12T01:21:48,42.805,6.029,CST-1368DR,7179,10063,15291,0.084,551
2019-12-12T01:24:49,42.805,6.029,CST-1368DR,7179,10062,15290,0.084,551
2019-12-12T01:27:51,42.805,6.029,CST-1368DR,7179,10061,15288,0.085,551
2019-12-12T01:30:52,42.805,6.029,CST-1368DR,7179,10063,15291,0.084,550
2019-12-12T01:33:54,42.805,6.029,CST-1368DR,7179,10063,15291,0.084,551
2019-12-12T01:36:56,42.805,6.029,CST-1368DR,7179,10062,15290,0.084,551
2019-12-12T01:39:58,42.805,6.029,CST-1368DR,7179,10061,15289,0.085,551
2019-12-12T01:42:59,42.805,6.029,CST-1368DR,7179,10061,15289,0.085,551
2019-12-12T01:46:01,42.805,6.029,CST-1368DR,7179,10062,15289,0.085,551
2019-12-12T01:49:02,42.805,6.029,CST-1368DR,7179,10062,15290,0.084,551
2019-12-12T01:52:04,42.805,6.029,CST-1368DR,7179,10062,15290,0.084,551
2019-12-12T01:55:06,42.805,6.029,CST-1368DR,7179,10061,15289,0.085,551
2019-12-12T01:58:08,42.805,6.029,CST-1368DR,7179,10062,15290,0.084,550
2019-12-12T02:01:09,42.805,6.029,CST-1368DR,7179,10062,15290,0.084,551
2019-12-12T02:04:11,42.805,6.029,CST-1368DR,7179,10062,15290,0.084,551
2019-12-12T02:07:13,42.805,6.029,CST-1368DR,7179,10062,15290,0.084,551
2019-12-12T02:10:14,42.805,6.029,CST-1368DR,7179,10061,15289,0.085,551
2019-12-12T02:13:16,42.805,6.029,CST-1368DR,7179,10061,15288,0.085,551
2019-12-12T02:16:18,42.805,6.029,CST-1368DR,7179,10062,15290,0.084,551
2019-12-12T02:19:20,42.805,6.029,CST-1368DR,7179,10062,15289,0.085,551
2019-12-12T02:22:22,42.805,6.029,CST-1368DR,7178,10059,15288,0.085,551
2019-12-12T02:25:23,42.805,6.029,CST-1368DR,7179,10060,15287,0.085,551
2019-12-12T02:28:25,42.805,6.029,CST-1368DR,7179,10063,15291,0.084,551
2019-12-12T02:31:27,42.805,6.029,CST-1368DR,7179,10062,15289,0.085,551
2019-12-12T02:34:29,42.805,6.029,CST-1368DR,7179,10061,15289,0.085,551
2019-12-12T02:37:30,42.805,6.029,CST-1368DR,7178,10060,15288,0.085,551
2019-12-12T02:40:32,42.805,6.029,CST-1368DR,7179,10062,15289,0.085,551
2019-12-12T02:43:33,42.805,6.029,CST-1368DR,7179,10062,15290,0.084,551
2019-12-12T02:46:35,42.805,6.029,CST-1368DR,7179,10062,15289,0.085,551
2019-12-12T02:49:37,42.805,6.029,CST-1368DR,7178,10061,15291,0.084,551
2019-12-12T02:52:38,42.805,6.029,CST-1368DR,7178,10062,15291,0.084,551
2019-12-12T02:55:40,42.805,6.029,CST-1368DR,7178,10062,15292,0.084,551
2019-12-12T02:58:42,42.805,6.029,CST-1368DR,7178,10062,15292,0.084,551
2019-12-12T03:01:43,42.805,6.029,CST-1368DR,7178,10061,15290,0.084,551
2019-12-12T03:04:45,42.805,6.029,CST-1368DR,7178,10061,15291,0.084,551
2019-12-12T03:07:46,42.805,6.029,CST-1368DR,7178,10061,15291,0.084,551
2019-12-12T03:10:48,42.805,6.029,CST-1368DR,7178,10062,15291,0.084,551
2019-12-12T03:13:50,42.805,6.029,CST-1368DR,7178,10062,15292,0.084,551
2019-12-12T03:16:51,42.805,6.029,CST-1368DR,7178,10060,15288,0.085,551
2019-12-12T03:19:53,42.805,6.029,CST-1368DR,7178,10062,15291,0.084,551
2019-12-12T03:22:55,42.805,6.029,CST-1368DR,7178,10062,15292,0.084,551
2019-12-12T03:25:56,42.805,6.029,CST-1368DR,7178,10062,15292,0.084,551
2019-12-12T03:28:58,42.805,6.029,CST-1368DR,7178,10062,15292,0.084,551
2019-12-12T03:31:59,42.805,6.029,CST-1368DR,7178,10062,15292,0.084,551
2019-12-12T03:35:01,42.805,6.029,CST-1368DR,7178,10062,15292,0.084,551
2019-12-12T03:38:03,42.805,6.029,CST-1368DR,7178,10061,15291,0.084,551
2019-12-12T03:41:04,42.805,6.029,CST-1368DR,7178,10062,15291,0.084,551
2019-12-12T03:44:06,42.805,6.029,CST-1368DR,7178,10061,15290,0.084,551
2019-12-12T03:47:08,42.805,6.029,CST-1368DR,7178,10061,15291,0.084,551
2019-12-12T03:50:09,42.805,6.029,CST-1368DR,7178,10061,15290,0.084,551
2019-12-12T03:53:11,42.805,6.029,CST-1368DR,7178,10062,15292,0.084,551
2019-12-12T03:56:13,42.805,6.029,CST-1368DR,7178,10062,15292,0.084,550
2019-12-12T03:59:14,42.805,6.029,CST-1368DR,7178,10060,15289,0.085,551
2019-12-12T04:02:16,42.805,6.029,CST-1368DR,7178,10061,15290,0.084,551
2019-12-12T04:05:18,42.805,6.029,CST-1368DR,7178,10061,15290,0.084,551
2019-12-12T04:08:19,42.805,6.029,CST-1368DR,7178,10062,15291,0.084,551
2019-12-12T04:11:21,42.805,6.029,CST-1368DR,7178,10061,15290,0.084,551
2019-12-12T04:14:22,42.805,6.029,CST-1368DR,7178,10061,15291,0.084,551
2019-12-12T04:17:24,42.805,6.029,CST-1368DR,7178,10061,15291,0.084,551
2019-12-12T04:20:26,42.805,6.029,CST-1368DR,7178,10061,15291,0.084,551
2019-12-12T04:23:27,42.805,6.029,CST-1368DR,7178,10059,15287,0.085,551
2019-12-12T04:26:29,42.805,6.029,CST-1368DR,7178,10061,15290,0.084,551
2019-12-12T04:29:31,42.805,6.029,CST-1368DR,7178,10062,15291,0.084,551
2019-12-12T04:32:32,42.805,6.029,CST-1368DR,7178,10062,15292,0.084,551
2019-12-12T04:35:34,42.805,6.029,CST-1368DR,7178,10058,15286,0.085,551
2019-12-12T04:38:35,42.805,6.029,CST-1368DR,7178,10061,15290,0.084,551
2019-12-12T04:41:37,42.805,6.029,CST-1368DR,7178,10061,15290,0.084,551
2019-12-12T04:44:39,42.805,6.029,CST-1368DR,7178,10061,15291,0.084,551
2019-12-12T04:47:40,42.805,6.029,CST-1368DR,7178,10062,15291,0.084,551
2019-12-12T04:50:42,42.805,6.029,CST-1368DR,7178,10062,15291,0.084,551
2019-12-12T04:53:44,42.805,6.029,CST-1368DR,7178,10062,15291,0.084,551
2019-12-12T04:56:45,42.805,6.029,CST-1368DR,7178,10061,15290,0.084,551
2019-12-12T04:59:48,42.805,6.029,CST-1368DR,7178,10062,15291,0.084,551
2019-12-12T05:02:49,42.805,6.029,CST-1368DR,7178,10058,15286,0.085,551
2019-12-12T05:05:51,42.805,6.029,CST-1368DR,7178,10060,15288,0.085,550
2019-12-12T05:08:53,42.805,6.029,CST-1368DR,7178,10061,15291,0.084,550
2019-12-12T05:11:54,42.805,6.029,CST-1368DR,7178,10062,15292,0.084,551
2019-12-12T05:14:56,42.805,6.029,CST-1368DR,7178,10056,15283,0.086,551
2019-12-12T05:17:58,42.805,6.029,CST-1368DR,7178,10061,15291,0.084,551
2019-12-12T05:20:59,42.805,6.029,CST-1368DR,7178,10060,15289,0.085,551
2019-12-12T05:24:01,42.805,6.029,CST-1368DR,7178,10061,15290,0.084,551
2019-12-12T05:27:03,42.805,6.029,CST-1368DR,7178,10061,15290,0.084,551
2019-12-12T05:30:05,42.805,6.029,CST-1368DR,7178,10061,15290,0.084,551
2019-12-12T05:33:06,42.805,6.029,CST-1368DR,7178,10060,15289,0.085,551
2019-12-12T05:36:08,42.805,6.029,CST-1368DR,7178,10061,15290,0.084,551
2019-12-12T05:39:09,42.805,6.029,CST-1368DR,7178,10061,15291,0.084,551
2019-12-12T05:42:11,42.805,6.029,CST-1368DR,7178,10062,15291,0.084,551
2019-12-12T05:45:13,42.805,6.029,CST-1368DR,7178,10062,15291,0.084,551
2019-12-12T05:48:14,42.805,6.029,CST-1368DR,7178,10061,15290,0.084,551
2019-12-12T05:51:16,42.805,6.029,CST-1368DR,7178,10061,15291,0.084,551
2019-12-12T05:54:18,42.805,6.029,CST-1368DR,7178,10061,15290,0.084,551
2019-12-12T05:57:19,42.805,6.029,CST-1368DR,7178,10062,15291,0.084,551
2019-12-12T06:00:21,42.805,6.029,CST-1368DR,7178,10061,15290,0.084,551
2019-12-12T06:03:22,42.805,6.029,CST-1368DR,7178,10060,15288,0.085,551
2019-12-12T06:06:24,42.805,6.029,CST-1368DR,7177,10061,15292,0.084,551
2019-12-12T06:09:26,42.805,6.029,CST-1368DR,7177,10061,15293,0.084,551
2019-12-12T06:12:27,42.805,6.029,CST-1368DR,7177,10059,15289,0.085,551
2019-12-12T06:15:29,42.805,6.029,CST-1368DR,7178,10061,15291,0.084,551
2019-12-12T06:18:31,42.805,6.029,CST-1368DR,7178,10061,15290,0.084,551
2019-12-12T06:21:32,42.805,6.029,CST-1368DR,7178,10060,15289,0.085,551
2019-12-12T06:24:34,42.805,6.029,CST-1368DR,7178,10061,15290,0.084,551
2019-12-12T06:27:35,42.805,6.029,CST-1368DR,7177,10061,15292,0.084,551
2019-12-12T06:30:37,42.805,6.029,CST-1368DR,7177,10061,15292,0.084,551
2019-12-12T06:33:39,42.805,6.029,CST-1368DR,7177,10061,15293,0.084,551
2019-12-12T06:36:40,42.805,6.029,CST-1368DR,7177,10060,15291,0.084,551
2019-12-12T06:39:42,42.805,6.029,CST-1368DR,7177,10061,15292,0.084,551
2019-12-12T06:42:44,42.805,6.029,CST-1368DR,7177,10059,15289,0.085,551
2019-12-12T06:45:45,42.805,6.029,CST-1368DR,7177,10058,15288,0.085,551
2019-12-12T06:48:47,42.805,6.029,CST-1368DR,7177,10062,15293,0.084,551
2019-12-12T06:51:48,42.805,6.029,CST-1368DR,7177,10061,15292,0.084,551
2019-12-12T06:54:50,42.805,6.029,CST-1368DR,7177,10060,15291,0.084,551
2019-12-12T06:57:52,42.805,6.029,CST-1368DR,7177,10059,15289,0.085,551
2019-12-12T07:00:53,42.805,6.029,CST-1368DR,7177,10061,15292,0.084,551
2019-12-12T07:03:55,42.805,6.029,CST-1368DR,7177,10061,15292,0.084,551
2019-12-12T07:06:56,42.805,6.029,CST-1368DR,7177,10060,15291,0.084,551
2019-12-12T07:09:58,42.805,6.029,CST-1368DR,7177,10058,15288,0.085,551
2019-12-12T07:13:00,42.805,6.029,CST-1368DR,7177,10060,15290,0.084,551
2019-12-12T07:16:02,42.805,6.029,CST-1368DR,7177,10060,15290,0.084,551
2019-12-12T07:19:03,42.805,6.029,CST-1368DR,7177,10060,15291,0.084,551
2019-12-12T07:22:05,42.805,6.029,CST-1368DR,7177,10059,15289,0.085,551
2019-12-12T07:25:06,42.805,6.029,CST-1368DR,7177,10059,15289,0.085,551
2019-12-12T07:28:08,42.805,6.029,CST-1368DR,7177,10059,15290,0.084,551
2019-12-12T07:31:10,42.805,6.029,CST-1368DR,7177,10059,15290,0.084,551
2019-12-12T07:34:11,42.805,6.029,CST-1368DR,7177,10060,15290,0.084,551
2019-12-12T07:37:13,42.805,6.029,CST-1368DR,7177,10059,15289,0.085,551
2019-12-12T07:40:15,42.805,6.029,CST-1368DR,7177,10059,15290,0.084,551
2019-12-12T07:43:17,42.805,6.029,CST-1368DR,7177,10059,15289,0.085,551
2019-12-12T07:46:18,42.805,6.029,CST-1368DR,7177,10059,15289,0.085,551
2019-12-12T07:49:20,42.805,6.029,CST-1368DR,7177,10059,15290,0.084,551
2019-12-12T07:52:21,42.805,6.029,CST-1368DR,7177,10059,15289,0.085,551
2019-12-12T07:55:23,42.805,6.029,CST-1368DR,7177,10059,15290,0.084,551
2019-12-12T07:58:25,42.805,6.029,CST-1368DR,7177,10058,15288,0.085,551
2019-12-12T08:01:26,42.805,6.029,CST-1368DR,7177,10059,15290,0.084,551
2019-12-12T08:04:28,42.805,6.029,CST-1368DR,7177,10060,15291,0.084,551
2019-12-12T08:07:30,42.805,6.029,CST-1368DR,7177,10059,15289,0.085,551
2019-12-12T08:10:31,42.805,6.029,CST-1368DR,7177,10059,15289,0.085,551
2019-12-12T08:13:33,42.805,6.029,CST-1368DR,7177,10058,15288,0.085,551
2019-12-12T08:16:35,42.805,6.029,CST-1368DR,7177,10059,15289,0.085,551
2019-12-12T08:19:36,42.805,6.029,CST-1368DR,7177,10060,15290,0.084,551
2019-12-12T08:22:38,42.805,6.029,CST-1368DR,7177,10059,15289,0.085,550
2019-12-12T08:25:39,42.805,6.029,CST-1368DR,7177,10060,15290,0.084,551
2019-12-12T08:28:41,42.805,6.029,CST-1368DR,7177,10059,15290,0.084,551
2019-12-12T08:31:43,42.805,6.029,CST-1368DR,7177,10058,15288,0.085,551
2019-12-12T08:34:44,42.805,6.029,CST-1368DR,7177,10059,15289,0.085,551
2019-12-12T08:37:46,42.805,6.029,CST-1368DR,7177,10057,15286,0.085,551
2019-12-12T08:40:48,42.805,6.029,CST-1368DR,7177,10059,15289,0.085,551
2019-12-12T08:43:49,42.805,6.029,CST-1368DR,7177,10059,15289,0.085,551
2019-12-12T08:46:51,42.805,6.029,CST-1368DR,7177,10059,15290,0.084,551
2019-12-12T08:49:52,42.805,6.029,CST-1368DR,7177,10058,15288,0.085,551
2019-12-12T08:52:54,42.805,6.029,CST-1368DR,7177,10059,15290,0.084,551
2019-12-12T08:55:56,42.805,6.029,CST-1368DR,7177,10059,15289,0.085,551
2019-12-12T08:58:57,42.805,6.029,CST-1368DR,7177,10059,15289,0.085,551
2019-12-12T09:01:59,42.805,6.029,CST-1368DR,7177,10058,15288,0.085,550
2019-12-12T09:05:00,42.805,6.029,CST-1368DR,7177,10059,15290,0.084,551
2019-12-12T09:08:02,42.805,6.029,CST-1368DR,7177,10059,15289,0.085,551
2019-12-12T09:11:04,42.805,6.029,CST-1368DR,7177,10059,15289,0.085,551
2019-12-12T09:14:05,42.805,6.029,CST-1368DR,7177,10058,15288,0.085,551
2019-12-12T09:17:07,42.805,6.029,CST-1368DR,7177,10058,15288,0.085,551
2019-12-12T09:20:09,42.805,6.029,CST-1368DR,7176,10058,15290,0.084,551
2019-12-12T09:23:10,42.805,6.029,CST-1368DR,7176,10059,15291,0.084,551
2019-12-12T09:26:12,42.805,6.029,CST-1368DR,7176,10059,15291,0.084,551
2019-12-12T09:29:13,42.805,6.029,CST-1368DR,7177,10059,15289,0.085,551
2019-12-12T09:32:15,42.805,6.029,CST-1368DR,7176,10058,15290,0.084,551
2019-12-12T09:35:17,42.805,6.029,CST-1368DR,7176,10059,15291,0.084,551
2019-12-12T09:38:19,42.805,6.029,CST-1368DR,7176,10058,15290,0.084,551
2019-12-12T09:41:20,42.805,6.029,CST-1368DR,7176,10058,15290,0.084,551
2019-12-12T09:44:22,42.805,6.029,CST-1368DR,7176,10058,15290,0.084,551
2019-12-12T09:47:24,42.805,6.029,CST-1368DR,7176,10059,15291,0.084,551
2019-12-12T09:50:25,42.805,6.029,CST-1368DR,7176,10059,15291,0.084,551
2019-12-12T09:53:27,42.805,6.029,CST-1368DR,7176,10056,15286,0.085,551
2019-12-12T09:56:28,42.805,6.029,CST-1368DR,7176,10056,15287,0.085,551
2019-12-12T09:59:30,42.805,6.029,CST-1368DR,7176,10059,15291,0.084,551
2019-12-12T10:02:32,42.805,6.029,CST-1368DR,7176,10058,15290,0.084,551
2019-12-12T10:05:33,42.805,6.029,CST-1368DR,7176,10058,15290,0.084,551
2019-12-12T10:08:35,42.805,6.029,CST-1368DR,7176,10058,15289,0.085,551
2019-12-12T10:11:36,42.805,6.029,CST-1368DR,7176,10058,15290,0.084,551
2019-12-12T10:14:38,42.805,6.029,CST-1368DR,7176,10058,15289,0.085,551
2019-12-12T10:17:40,42.805,6.029,CST-1368DR,7176,10058,15289,0.085,551
2019-12-12T10:20:41,42.805,6.029,CST-1368DR,7176,10057,15289,0.085,551
2019-12-12T10:23:43,42.805,6.029,CST-1368DR,7176,10058,15290,0.084,551
2019-12-12T10:26:45,42.805,6.029,CST-1368DR,7176,10057,15289,0.085,551
2019-12-12T10:29:47,42.805,6.029,CST-1368DR,7176,10059,15291,0.084,551
2019-12-12T10:32:49,42.805,6.029,CST-1368DR,7176,10057,15289,0.085,551
2019-12-12T10:35:51,42.805,6.029,CST-1368DR,7176,10056,15287,0.085,551
2019-12-12T10:38:52,42.805,6.029,CST-1368DR,7176,10058,15289,0.085,551
2019-12-12T10:41:54,42.805,6.029,CST-1368DR,7176,10057,15288,0.085,550
2019-12-12T10:44:56,42.805,6.029,CST-1368DR,7176,10058,15289,0.085,551
2019-12-12T10:47:57,42.805,6.029,CST-1368DR,7176,10058,15289,0.085,551
2019-12-12T10:50:59,42.805,6.029,CST-1368DR,7176,10056,15287,0.085,551
2019-12-12T10:54:00,42.805,6.029,CST-1368DR,7176,10051,15280,0.087,551
2019-12-12T10:57:02,42.805,6.029,CST-1368DR,7176,10057,15288,0.085,551
2019-12-12T11:00:04,42.805,6.029,CST-1368DR,7176,10058,15290,0.084,550
2019-12-12T11:03:05,42.805,6.029,CST-1368DR,7176,10056,15286,0.085,551
2019-12-12T11:06:07,42.805,6.029,CST-1368DR,7176,10058,15290,0.084,550
2019-12-12T11:09:09,42.805,6.029,CST-1368DR,7176,10058,15289,0.085,551
2019-12-12T11:12:10,42.805,6.029,CST-1368DR,7176,10057,15288,0.085,551
2019-12-12T11:15:12,42.805,6.029,CST-1368DR,7176,10058,15289,0.085,551
2019-12-12T11:18:13,42.805,6.029,CST-1368DR,7176,10058,15290,0.084,551
2019-12-12T11:21:15,42.805,6.029,CST-1368DR,7176,10058,15290,0.084,551
2019-12-12T11:24:17,42.805,6.029,CST-1368DR,7176,10056,15287,0.085,551
2019-12-12T11:27:18,42.805,6.029,CST-1368DR,7176,10057,15288,0.085,551
2019-12-12T11:30:20,42.805,6.029,CST-1368DR,7176,10056,15286,0.085,551
2019-12-12T11:33:22,42.805,6.029,CST-1368DR,7176,10058,15289,0.085,551
2019-12-12T11:36:23,42.805,6.029,CST-1368DR,7176,10056,15287,0.085,551
2019-12-12T11:39:25,42.805,6.029,CST-1368DR,7176,10058,15289,0.085,551
2019-12-12T11:42:27,42.805,6.029,CST-1368DR,7176,10054,15284,0.086,551
2019-12-12T11:45:28,42.805,6.029,CST-1368DR,7176,10056,15286,0.085,550
2019-12-12T11:48:30,42.805,6.029,CST-1368DR,7176,10057,15288,0.085,551
2019-12-12T11:51:31,42.805,6.029,CST-1368DR,7176,10057,15289,0.085,551
2019-12-12T11:54:33,42.805,6.029,CST-1368DR,7176,10057,15288,0.085,551
2019-12-12T11:57:35,42.805,6.029,CST-1368DR,7176,10056,15286,0.085,551
2019-12-12T12:00:37,42.805,6.029,CST-1368DR,7176,10056,15286,0.085,551
2019-12-12T12:03:38,42.805,6.029,CST-1368DR,7176,10056,15286,0.085,551
2019-12-12T12:06:40,42.805,6.029,CST-1368DR,7176,10057,15288,0.085,551
2019-12-12T12:09:41,42.805,6.029,CST-1368DR,7176,10058,15289,0.085,551
2019-12-12T12:12:43,42.805,6.029,CST-1368DR,7176,10056,15286,0.085,551
2019-12-12T12:15:45,42.805,6.029,CST-1368DR,7176,10057,15288,0.085,551
2019-12-12T12:18:46,42.805,6.029,CST-1368DR,7176,10057,15288,0.085,551
2019-12-12T12:21:48,42.805,6.029,CST-1368DR,7176,10057,15288,0.085,551
2019-12-12T12:24:49,42.805,6.029,CST-1368DR,7176,10056,15286,0.085,551
2019-12-12T12:27:51,42.805,6.029,CST-1368DR,7176,10057,15288,0.085,551
2019-12-12T12:30:53,42.805,6.029,CST-1368DR,7176,10055,15286,0.085,551
2019-12-12T12:33:54,42.805,6.029,CST-1368DR,7176,10056,15287,0.085,551
2019-12-12T12:36:56,42.805,6.029,CST-1368DR,7176,10056,15287,0.085,551
2019-12-12T12:39:58,42.805,6.029,CST-1368DR,7176,10057,15289,0.085,551
2019-12-12T12:42:59,42.805,6.029,CST-1368DR,7176,10055,15285,0.086,551
2019-12-12T12:46:01,42.805,6.029,CST-1368DR,7176,10056,15287,0.085,551
2019-12-12T12:49:02,42.805,6.029,CST-1368DR,7176,10057,15288,0.085,551
2019-12-12T12:52:04,42.805,6.029,CST-1368DR,7176,10055,15285,0.086,551
2019-12-12T12:55:06,42.805,6.029,CST-1368DR,7176,10056,15287,0.085,551
2019-12-12T12:58:07,42.805,6.029,CST-1368DR,7176,10056,15287,0.085,550
2019-12-12T13:01:09,42.805,6.029,CST-1368DR,7176,10056,15286,0.085,551
2019-12-12T13:04:11,42.805,6.029,CST-1368DR,7176,10057,15288,0.085,551
2019-12-12T13:07:12,42.805,6.029,CST-1368DR,7175,10054,15285,0.086,551
2019-12-12T13:10:14,42.805,6.029,CST-1368DR,7175,10056,15288,0.085,551
2019-12-12T13:13:16,42.805,6.029,CST-1368DR,7176,10057,15288,0.085,551
2019-12-12T13:16:17,42.805,6.029,CST-1368DR,7175,10056,15289,0.085,551
2019-12-12T13:19:19,42.805,6.029,CST-1368DR,7175,10058,15291,0.084,551
2019-12-12T13:22:21,42.805,6.029,CST-1368DR,7175,10057,15290,0.084,551
2019-12-12T13:25:23,42.805,6.029,CST-1368DR,7175,10057,15290,0.084,551
2019-12-12T13:28:24,42.805,6.029,CST-1368DR,7175,10055,15287,0.085,551
2019-12-12T13:31:26,42.805,6.029,CST-1368DR,7175,10051,15281,0.087,551
2019-12-12T13:34:28,42.805,6.029,CST-1368DR,7175,10056,15288,0.085,551
2019-12-12T13:37:30,42.805,6.029,CST-1368DR,7175,10055,15287,0.085,551
2019-12-12T13:40:31,42.805,6.029,CST-1368DR,7175,10055,15288,0.085,551
2019-12-12T13:43:33,42.805,6.029,CST-1368DR,7175,10055,15287,0.085,551
2019-12-12T13:46:34,42.805,6.029,CST-1368DR,7175,10056,15288,0.085,551
2019-12-12T13:49:36,42.805,6.029,CST-1368DR,7175,10057,15290,0.084,551
2019-12-12T13:52:38,42.805,6.029,CST-1368DR,7175,10055,15287,0.085,551
2019-12-12T13:55:39,42.805,6.029,CST-1368DR,7175,10056,15289,0.085,551
2019-12-12T13:58:41,42.805,6.029,CST-1368DR,7175,10056,15288,0.085,551
2019-12-12T14:01:42,42.805,6.029,CST-1368DR,7175,10056,15288,0.085,550
2019-12-12T14:04:44,42.805,6.029,CST-1368DR,7175,10056,15288,0.085,551
2019-12-12T14:07:46,42.805,6.029,CST-1368DR,7175,10055,15287,0.085,551
2019-12-12T14:10:47,42.805,6.029,CST-1368DR,7175,10056,15289,0.085,551
2019-12-12T14:13:49,42.805,6.029,CST-1368DR,7175,10055,15288,0.085,551
2019-12-12T14:16:51,42.805,6.029,CST-1368DR,7175,10056,15289,0.085,551
2019-12-12T14:19:52,42.805,6.029,CST-1368DR,7175,10056,15288,0.085,551
2019-12-12T14:22:54,42.805,6.029,CST-1368DR,7175,10055,15288,0.085,551
2019-12-12T14:25:55,42.805,6.029,CST-1368DR,7175,10056,15289,0.085,551
2019-12-12T14:28:57,42.805,6.029,CST-1368DR,7175,10057,15290,0.084,551
2019-12-12T14:31:59,42.805,6.029,CST-1368DR,7175,10056,15289,0.085,551
2019-12-12T14:35:00,42.805,6.029,CST-1368DR,7175,10053,15284,0.086,551
2019-12-12T14:38:02,42.805,6.029,CST-1368DR,7175,10055,15288,0.085,551
2019-12-12T14:41:04,42.805,6.029,CST-1368DR,7175,10056,15289,0.085,551
2019-12-12T14:44:05,42.805,6.029,CST-1368DR,7175,10055,15287,0.085,551
2019-12-12T14:47:07,42.805,6.029,CST-1368DR,7175,10055,15287,0.085,551
2019-12-12T14:50:08,42.805,6.029,CST-1368DR,7175,10055,15287,0.085,551
2019-12-12T14:53:10,42.805,6.029,CST-1368DR,7175,10052,15282,0.086,551
2019-12-12T14:56:12,42.805,6.029,CST-1368DR,7175,10056,15288,0.085,551
2019-12-12T14:59:13,42.805,6.029,CST-1368DR,7175,10056,15288,0.085,551
2019-12-12T15:02:15,42.805,6.029,CST-1368DR,7175,10055,15288,0.085,551
2019-12-12T15:05:16,42.805,6.029,CST-1368DR,7175,10055,15288,0.085,551
2019-12-12T15:08:18,42.805,6.029,CST-1368DR,7175,10056,15288,0.085,551
2019-12-12T15:11:20,42.805,6.029,CST-1368DR,7175,10055,15288,0.085,551
2019-12-12T15:14:21,42.805,6.029,CST-1368DR,7175,10054,15285,0.086,551
2019-12-12T15:17:23,42.805,6.029,CST-1368DR,7175,10055,15287,0.085,551
2019-12-12T15:20:25,42.805,6.029,CST-1368DR,7175,10053,15284,0.086,551
2019-12-12T15:23:26,42.805,6.029,CST-1368DR,7175,10056,15288,0.085,551
2019-12-12T15:26:28,42.805,6.029,CST-1368DR,7175,10054,15286,0.085,551
2019-12-12T15:29:30,42.805,6.029,CST-1368DR,7175,10053,15285,0.086,551
2019-12-12T15:32:31,42.805,6.029,CST-1368DR,7175,10055,15287,0.085,551
2019-12-12T15:35:33,42.805,6.029,CST-1368DR,7175,10054,15286,0.085,551
2019-12-12T15:38:34,42.805,6.029,CST-1368DR,7175,10055,15287,0.085,551
2019-12-12T15:41:36,42.805,6.029,CST-1368DR,7175,10055,15287,0.085,551
2019-12-12T15:44:38,42.805,6.029,CST-1368DR,7175,10055,15287,0.085,551
2019-12-12T15:47:39,42.805,6.029,CST-1368DR,7175,10054,15286,0.085,551
2019-12-12T15:50:41,42.805,6.029,CST-1368DR,7175,10056,15288,0.085,551
2019-12-12T15:53:42,42.805,6.029,CST-1368DR,7175,10055,15287,0.085,551
2019-12-12T15:56:44,42.805,6.029,CST-1368DR,7175,10055,15288,0.085,551
2019-12-12T15:59:46,42.805,6.029,CST-1368DR,7175,10055,15287,0.085,551
2019-12-12T16:02:48,42.805,6.029,CST-1368DR,7175,10055,15287,0.085,551
2019-12-12T16:05:50,42.805,6.029,CST-1368DR,7175,10055,15288,0.085,551
2019-12-12T16:08:51,42.805,6.029,CST-1368DR,7175,10054,15286,0.085,551
2019-12-12T16:11:53,42.805,6.029,CST-1368DR,7175,10055,15287,0.085,551
2019-12-12T16:14:55,42.805,6.029,CST-1368DR,7175,10055,15287,0.085,551
2019-12-12T16:17:56,42.805,6.029,CST-1368DR,7175,10054,15286,0.085,551
2019-12-12T16:20:58,42.805,6.029,CST-1368DR,7175,10056,15288,0.085,551
2019-12-12T16:24:00,42.805,6.029,CST-1368DR,7174,10054,15288,0.085,551
2019-12-12T16:27:01,42.805,6.029,CST-1368DR,7174,10053,15286,0.085,551
2019-12-12T16:30:03,42.805,6.029,CST-1368DR,7174,10054,15288,0.085,551
2019-12-12T16:33:05,42.805,6.029,CST-1368DR,7174,10054,15288,0.085,551
2019-12-12T16:36:06,42.805,6.029,CST-1368DR,7174,10055,15289,0.085,551